Regional Weather Roundup
Issued by NWS Jackson, KY

Home | Current Version | Previous Version | Text Only | Print | Product List | Glossary Off
Versions: 1 2 3 4 5 6 7 8 9 10 11 12 13 14 15 16 17 18 19 20 21 22 23 24 25 26 27 28 29 30 31 32 33 34 35 36 37 38 39 40 41 42 43 44 45 46 47 48 49 50

000
ASUS43 KJKL 242110
RWRJKL

EAST KENTUCKY HOURLY WEATHER ROUNDUP
NATIONAL WEATHER SERVICE JACKSON KY
500 PM EDT SUN SEP 24 2017

NOTE: "FAIR" INDICATES FEW OR NO CLOUDS BELOW 12,000 FEET WITH
NO SIGNIFICANT WEATHER AND/OR OBSTRUCTIONS TO VISIBILITY.

* THESE REPORTS ARE NOT UNDER NWS QUALITY CONTROL AND MAY NOT
  REPORT WEATHER SUCH AS PRECIPITATION AND FOG.

KYZ079-080-083-085-087-088-110-112-115-119-120-242200
...EASTERN KENTUCKY...

CITY           SKY/WX    TMP DP  RH WIND       PRES   REMARKS
JACKSON        SUNNY     84  63  49 CALM      30.07F
LONDON         SUNNY     83  61  47 CALM      30.06F
SOMERSET*      MOSUNNY   84  61  45 CALM      30.05S
MONTICELLO*    CLOUDY    86  64  47 VRB6      30.05F
WILLIAMSBURG*  CLEAR     86  61  42 CALM      30.05S
MIDDLESBORO*   SUNNY     86  59  39 CALM      30.06S
HARLAN APT*    CLEAR     86  55  35 CALM      30.07S
PIKE CO APT*     N/A     82  58  43 N3        30.09S
BIG SANDY APT* CLEAR     80  64  58 N3        30.08F
MOREHEAD APT*  PTCLDY    84  57  39 E7        30.08F
$$

KYZ035-036-041-042-044-050-067-078-099-242200
...CENTRAL KENTUCKY...

CITY           SKY/WX    TMP DP  RH WIND       PRES   REMARKS
MT STERLING*   SUNNY     86  59  39 E7        30.07F
FLEMING/MASON* SUNNY     85  59  40 E6        30.07F
DANVILLE*      MOSUNNY   84  61  45 CALM      30.05F
LEXINGTON      SUNNY     87  58  37 SE8       30.05F
FRANKFORT      SUNNY     89  54  30 E8        30.03F
LOUISVILLE     MOSUNNY   91  53  27 NE9       30.01F
LEBANON*         N/A     86  61  42 CALM      30.03F
GLASGOW*       CLOUDY    87  67  52 SW3       30.01F
BOWLING GREEN  SUNNY     87  67  51 CALM      30.00F HX  90
$$

KYZ091>093-OHZ055-061-077-WVZ005-015-034-035-042-242200
...SOUTHERN OHIO/WEST VIRGINIA...

CITY           SKY/WX    TMP DP  RH WIND       PRES   REMARKS
COVINGTON      MOSUNNY   88  53  30 SE9       30.05F
COLUMBUS       SUNNY     90  60  36 E8        30.06F
DAYTON         MOSUNNY   87  51  28 SE13      30.07F
WILMINGTON     SUNNY     86  54  33 S7        30.07F
HUNTINGTON     SUNNY     87  56  34 VRB6      30.05F
CHARLESTON     MOSUNNY   88  55  32 SE5       30.05F
PINEVILLE*     MOSUNNY   86  50  29 MISG      30.13S
BECKLEY        MOSUNNY   82  51  34 S7        30.13F
BLUEFIELD      MOSUNNY   78  50  37 VRB7      30.15F
LOGAN CO APT*    N/A     84  61  45 CALM      30.08F
$$

VAZ002-007-008-TNZ017-027-036-066-071-242200
...SOUTHWEST VIRGINIA/EAST TENNESSEE...

CITY           SKY/WX    TMP DP  RH WIND       PRES   REMARKS
WISE*          SUNNY     81  52  36 CALM      30.15S
JONESVILLE*      N/A     88  59  37 CALM      30.08S
ABINGDON*      SUNNY     86  51  29 E7        30.09F
BRISTOL        PTSUNNY   88  58  36 SE3       30.05F
MORRISTOWN*    PTCLDY    86  57  37 N9        30.03F
SEVIERVILLE*   CLEAR     86  55  35 VRB3      30.02S
LAFOLLETTE*    CLEAR     86  63  45 VRB3      30.07F
OAK RIDGE      SUNNY     88  61  40 VRB3      30.04F
CROSSVILLE     PTSUNNY   81  62  52 CALM      30.09F
NASHVILLE      CLOUDY    87  64  46 SE8       30.00F
$$

...KEY TO REMARKS...
VSB - VISIBILITY IN MILES
WCI - WIND CHILL INDEX
HX  - HEAT INDEX

$$



USA.gov is the U.S. government's official web portal to all federal, state and local government web resources and services.